Flag for Hungary Weather past 2 weeks in Miskolc, Hungary

35 °F

Light rain. Overcast.

Feels Like: 35 °F
Forecast: 31 / 40 °F
Wind: 1 mph from North

Location: Miskolc

Current Time: Nov 28, 2015 at 8:38:32 PM

Latest Report: Nov 28, 2015 at 8:00 PM

Visibility: 1 mi

Pressure: 29.88 "Hg

Humidity: 90%

Dew point: 33 °F

Location of MiskolcLocation

Historic Weather in Miskolc — Graph


Miskolc temperature yesterday

Maximum temperature yesterday: 39 °F (at 2:00 PM)
Minimum temperature yesterday: 30 °F (at 10:00 PM)
Average temperature yesterday: 36 °F

Past Weeks' High & Low Weather Summary

High67 °F (Nov 18, 1:00 PM)90% (Nov 28, 5:00 PM)30.36 "Hg (Nov 28, 5:00 PM)
Low21 °F (Nov 25, 7:00 AM)36% (Nov 14, 4:00 PM)29.26 "Hg (Nov 21, 3:00 AM)
Average44 °F70%29.92 "Hg
* Reported Nov 13 7:00 PM — Nov 28 7:00 PM, Miskolc, Weather by CustomWeather, © 2015

Note: Actual official high and low records may vary slightly from our data, if they occured in-between our weather recording intervals... More about our weather records


Miskolc weather history for previous 24 hours

Time TempWeatherWind HumidityBarometerVisibility
7:00 PM
Sat, Nov 28
36 °FLight rain. Overcast.1 mph90%29.86 "Hg1 mi
6:00 PM36 °FLight rain. Overcast.1 mph89%29.84 "Hg1 mi
5:00 PM36 °FLight rain. Overcast.No wind90%29.83 "Hg1 mi
4:00 PM36 °FLight rain. Overcast.No wind89%29.81 "Hg1 mi
3:00 PM36 °FLight rain. Overcast.1 mph89%29.80 "Hg1 mi
2:00 PM36 °FLight rain. Overcast.1 mph89%29.79 "Hg1 mi
1:00 PM37 °FLight rain. Overcast.1 mph89%29.78 "Hg1 mi
12:00 PM38 °FLight rain. Overcast.1 mph89%29.78 "Hg1 mi
11:00 AM37 °FLight rain. Overcast.No wind89%29.79 "Hg1 mi
10:00 AM35 °FLight rain. Overcast.1 mph88%29.79 "Hg1 mi
9:00 AM35 °FChilly.1 mph88%29.78 "HgN/A
7:00 AM35 °FLight rain. Overcast.1 mph84%29.78 "Hg5 mi
6:00 AM35 °FLight rain. Overcast.1 mph80%29.79 "Hg9 mi
5:00 AM35 °FLight rain. Overcast.1 mph76%29.80 "Hg7 mi
4:00 AM35 °FOvercast.2 mph75%29.82 "Hg9 mi
3:00 AM35 °FOvercast.1 mph75%29.85 "Hg9 mi
2:00 AM35 °FOvercast.2 mph76%29.87 "Hg12 mi
1:00 AM33 °FOvercast.1 mph83%29.90 "Hg11 mi
10:00 PM
Fri, Nov 27
30 °FClear.1 mph84%29.97 "Hg12 mi
8:00 PM32 °FClear.1 mph82%29.99 "Hg12 mi
Weather by CustomWeather, © 2015

See weather overviewHow to use our weather pages